EXPRESS-AT2

Last updated on Thu Jul 03 2025 00:02:46 GMT+0000 (Coordinated Universal Time)

1 39613U 14010B 25183.59431527 -.00000274 00000+0 00000+0 0 9995 2 39613 0.0191 290.8409 0000694 46.6394 297.1833 1.00272646 40991
UTC large
Height (km)
Speed (km/s)
/
Latitude / Longitude
Inclination (degrees)
Orbital Period (minutes)
Azimuth
Elevation
Range (km)
Doppler Factor

Next 0 passes for location: London (51.5072 / 0.1276)

Sorry there are no passes over London.